TimeEST,TemperatureF,Dew PointF,Humidity,Sea Level PressureIn,VisibilityMPH,Wind Direction,Wind SpeedMPH,Gust SpeedMPH,PrecipitationIn,Events,Conditions,WindDirDegrees,DateUTC
12:10 AM,30.2,17.6,60,30.12,10.0,NNW,3.5,-,N/A,,Clear,330,2013-01-21 05:10:00
12:35 AM,28.4,17.6,64,30.12,10.0,Calm,Calm,-,N/A,,Clear,0,2013-01-21 05:35:00
12:55 AM,28.4,19.4,69,30.12,10.0,Calm,Calm,-,N/A,,Mostly Cloudy,0,2013-01-21 05:55:00
1:15 AM,28.4,17.6,64,30.12,10.0,Calm,Calm,-,N/A,,Overcast,0,2013-01-21 06:15:00
1:35 AM,26.6,19.4,74,30.13,10.0,North,3.5,-,N/A,,Overcast,350,2013-01-21 06:35:00
2:00 AM,28.4,19.4,69,30.13,10.0,North,4.6,-,N/A,,Overcast,350,2013-01-21 07:00:00
2:20 AM,30.2,19.4,64,30.13,10.0,North,4.6,-,N/A,,Overcast,350,2013-01-21 07:20:00
2:40 AM,30.2,19.4,64,30.13,10.0,North,8.1,-,N/A,,Overcast,360,2013-01-21 07:40:00
3:05 AM,30.2,19.4,64,30.12,10.0,North,6.9,-,N/A,,Overcast,360,2013-01-21 08:05:00
3:25 AM,28.4,19.4,69,30.12,10.0,NNE,5.8,-,N/A,,Mostly Cloudy,30,2013-01-21 08:25:00
3:45 AM,26.6,19.4,74,30.12,10.0,NE,4.6,-,N/A,,Mostly Cloudy,50,2013-01-21 08:45:00
4:05 AM,28.4,19.4,69,30.12,10.0,Calm,Calm,-,N/A,,Mostly Cloudy,0,2013-01-21 09:05:00
4:30 AM,26.6,19.4,74,30.10,10.0,ENE,3.5,-,N/A,,Clear,60,2013-01-21 09:30:00
4:50 AM,26.6,19.4,74,30.10,10.0,NE,4.6,-,N/A,,Clear,50,2013-01-21 09:50:00
5:10 AM,26.6,19.4,74,30.11,10.0,NE,3.5,-,N/A,,Clear,40,2013-01-21 10:10:00
5:30 AM,26.6,19.4,74,30.11,10.0,Calm,Calm,-,N/A,,Clear,0,2013-01-21 10:30:00
5:50 AM,24.8,17.6,74,30.11,10.0,Calm,Calm,-,N/A,,Clear,0,2013-01-21 10:50:00
6:45 AM,24.8,19.4,80,30.12,10.0,Calm,Calm,-,N/A,,Overcast,0,2013-01-21 11:45:00
7:50 AM,26.6,17.6,69,30.12,10.0,Calm,Calm,-,N/A,,Overcast,0,2013-01-21 12:50:00
8:46 AM,28.4,19.4,69,30.11,10.0,Calm,Calm,-,N/A,,Overcast,0,2013-01-21 13:46:00
9:45 AM,28.4,19.4,69,30.11,10.0,Calm,Calm,-,N/A,,Overcast,0,2013-01-21 14:45:00
10:45 AM,32.0,19.4,60,30.09,10.0,South,3.5,-,N/A,,Overcast,190,2013-01-21 15:45:00
11:55 AM,33.8,21.2,60,30.02,10.0,SSE,5.8,-,N/A,,Overcast,160,2013-01-21 16:55:00
1:50 PM,37.4,23.0,56,29.92,10.0,South,5.8,-,N/A,,Overcast,170,2013-01-21 18:50:00
2:50 PM,41.0,24.8,53,29.97,10.0,SSW,9.2,-,N/A,,Clear,200,2013-01-21 19:50:00
4:50 PM,39.2,24.8,56,29.87,10.0,Variable,4.6,-,N/A,,Mostly Cloudy,0,2013-01-21 21:50:00
5:55 PM,35.6,21.2,56,29.90,10.0,NNW,10.4,-,N/A,,Scattered Clouds,330,2013-01-21 22:55:00
6:50 PM,33.8,17.6,52,29.93,10.0,NW,18.4,27.6,N/A,,Clear,320,2013-01-21 23:50:00
7:50 PM,32.0,19.4,60,29.94,10.0,NW,16.1,21.9,N/A,,Clear,320,2013-01-22 00:50:00
8:05 PM,32.0,17.6,55,29.94,10.0,WNW,21.9,28.8,N/A,,Clear,300,2013-01-22 01:05:00
8:25 PM,32.0,17.6,55,29.94,10.0,WNW,13.8,23.0,N/A,,Clear,290,2013-01-22 01:25:00
8:50 PM,30.2,17.6,60,29.94,10.0,WNW,10.4,18.4,N/A,,Clear,300,2013-01-22 01:50:00
9:10 PM,30.2,17.6,60,29.95,10.0,WNW,12.7,17.3,N/A,,Clear,300,2013-01-22 02:10:00
9:30 PM,30.2,17.6,60,29.96,10.0,WNW,10.4,-,N/A,,Clear,290,2013-01-22 02:30:00
9:50 PM,30.2,17.6,60,29.97,10.0,WNW,16.1,24.2,N/A,,Mostly Cloudy,300,2013-01-22 02:50:00
10:15 PM,28.4,14.0,55,29.97,10.0,WNW,18.4,25.3,N/A,,Overcast,300,2013-01-22 03:15:00
10:35 PM,28.4,14.0,55,29.97,10.0,WNW,15.0,25.3,N/A,,Mostly Cloudy,290,2013-01-22 03:35:00
10:55 PM,28.4,14.0,55,29.97,10.0,WNW,12.7,18.4,N/A,,Overcast,300,2013-01-22 03:55:00
11:15 PM,28.4,12.2,51,29.98,10.0,West,20.7,32.2,N/A,,Overcast,280,2013-01-22 04:15:00
11:40 PM,28.4,12.2,51,29.99,10.0,WNW,16.1,25.3,N/A,,Overcast,300,2013-01-22 04:40:00